Weather in Peschanoye

Russia / Republic of Karelia     62°09′38″N   35°47′33″E
temp.,
°C
wind,
m/s
gust,
m/s
humid.,
%
clouds,
%
prec.,
mm/h
press.,
hPa
HPBL,
m
3 march, wed
wed300:00−8nw458951 0.0 1010105
03:00−8w349326 0.0 101067
06:00−6w369733 0.1 1007144
09:00−2wnw6109065 0.4 1006630
12:00−2w4889100 0.0 1004556
15:00−1wsw5897100 0.7 1001502
18:00−2w3695100 0.8 997243
21:00−2ssw2398100 2.1 99578
4 march, thu
thu400:00−3nne3598100 1.9 993116
03:00−4n61194100 3.3 996466
06:00−10nnw479467 0.0 997115
09:00−12nnw349655 0.0 99995
12:00−9nnw369445 0.0 999221
15:00−7nw249365 0.0 1000127
18:00−9nw2395100 0.1 100056
21:00−10nw339789 0.1 100048
5 march, fri
fri500:00−12nw239660 0.0 100134
03:00−10nnw369578 0.4 1003244
06:00−14n459471 0.2 100591
09:00−17nnw369439 0.2 1007109
12:00−14nnw369241 0.0 1008302
15:00−11nw369162 0.1 1010374
18:00−11nw3692100 0.1 1011143
21:00−15nnw239675 0.1 101225
6 march, sat
sat600:00−17nnw229863 0.0 101320
03:00−18w1110036 0.0 101420
06:00−17sw229825 0.0 101320
09:00−14sw349656 0.1 1012132
12:00−13sw359793 0.1 1010193
15:00−11ssw579590 0.1 1007219
18:00−9s6119274 0.0 1003234
21:00−8s8149487 0.3 998507
7 march, sun
sun700:00−7sse91593100 1.4 991720
03:00−7se91593100 2.8 986718
06:00−6se91593100 1.9 983690
09:00−9wsw3595100 3.6 984339
12:00−8ne2592100 0.3 988397
15:00−8ne61090100 0.5 991736
18:00−10nne61188100 0.1 995485
21:00−10nne61290100 0.2 998571